When you browse on this site, cookies collect data to enhance your experience and personalize the content and advertising you see.
Visit our Privacy Policy to learn more. By continuing to use the site, you agree to this use of cookies and data.
  • In United Kingdom
  • List of Countries
  • For 7 days
  • Water Temperature
  • Weather Map
  • Weather Widgets
  • user-avatar
    Login

    Hourly Weather Ali Bayramli

    Today, 25 August, Sunday

    Time Temperature Precipitation Wind Pressure Humidity
    00:00 +28°C° 0 mm 3 mps 757 mmHg 44%
    01:00 +28°C° 0 mm 3 mps 756 mmHg 43%
    02:00 +27°C° 0 mm 3 mps 756 mmHg 42%
    03:00 +27°C° 0 mm 3 mps 756 mmHg 41%
    04:00 +27°C° 0 mm 2 mps 756 mmHg 44%
    05:00 +27°C° 0 mm 2 mps 756 mmHg 47%
    06:00 +27°C° 0 mm 2 mps 757 mmHg 50%
    07:00 +29°C° 0 mm 2 mps 757 mmHg 43%
    08:00 +32°C° 0 mm 2 mps 757 mmHg 36%
    09:00 +35°C° 0 mm 2 mps 757 mmHg 30%
    10:00 +37°C° 0 mm 3 mps 757 mmHg 26%
    11:00 +39°C° 0 mm 5 mps 757 mmHg 22%
    12:00 +40°C° 0 mm 6 mps 756 mmHg 18%
    13:00 +40°C° 0 mm 6 mps 756 mmHg 17%
    14:00 +39°C° 0 mm 7 mps 756 mmHg 17%
    15:00 +39°C° 0 mm 7 mps 756 mmHg 17%
    16:00 +36°C° 0 mm 7 mps 756 mmHg 20%
    17:00 +34°C° 0 mm 6 mps 756 mmHg 23%
    18:00 +33°C° 0 mm 5 mps 756 mmHg 26%
    19:00 +30°C° 0 mm 4 mps 756 mmHg 32%
    20:00 +28°C° 0 mm 3 mps 757 mmHg 38%
    21:00 +27°C° 0 mm 2 mps 757 mmHg 45%
    22:00 +26°C° 0 mm 2 mps 757 mmHg 45%
    23:00 +26°C° 0 mm 2 mps 757 mmHg 46%

    Tomorrow, 26 August, Monday

    Time Temperature Precipitation Wind Pressure Humidity
    00:00 +25°C° 0 mm 2 mps 757 mmHg 46%
    01:00 +25°C° 0 mm 2 mps 757 mmHg 44%
    02:00 +25°C° 0 mm 2 mps 757 mmHg 41%
    03:00 +25°C° 0 mm 3 mps 757 mmHg 38%
    04:00 +25°C° 0 mm 3 mps 758 mmHg 37%
    05:00 +25°C° 0 mm 3 mps 758 mmHg 36%
    06:00 +25°C° 0 mm 3 mps 758 mmHg 35%
    07:00 +28°C° 0 mm 3 mps 758 mmHg 30%
    08:00 +30°C° 0 mm 3 mps 759 mmHg 24%
    09:00 +34°C° 0 mm 4 mps 759 mmHg 19%
    10:00 +35°C° 0 mm 5 mps 759 mmHg 18%
    11:00 +38°C° 0 mm 6 mps 759 mmHg 17%
    12:00 +39°C° 0 mm 6 mps 759 mmHg 15%
    13:00 +38°C° 0 mm 8 mps 759 mmHg 18%
    14:00 +38°C° 0 mm 9 mps 758 mmHg 20%
    15:00 +37°C° 0 mm 10 mps 758 mmHg 22%
    16:00 +36°C° 0 mm 10 mps 758 mmHg 28%
    17:00 +33°C° 0 mm 11 mps 758 mmHg 33%
    18:00 +32°C° 0 mm 11 mps 759 mmHg 39%
    19:00 +31°C° 0 mm 11 mps 759 mmHg 40%
    20:00 +29°C° 0 mm 10 mps 760 mmHg 42%
    21:00 +29°C° 0 mm 10 mps 760 mmHg 44%
    22:00 +28°C° 0 mm 9 mps 760 mmHg 45%
    23:00 +27°C° 0 mm 8 mps 760 mmHg 47%

    Day after tomorrow, 27 August, Tuesday

    Time Temperature Precipitation Wind Pressure Humidity
    00:00 +27°C° 0 mm 7 mps 760 mmHg 48%
    01:00 +26°C° 0.1 mm 5 mps 760 mmHg 53%
    02:00 +25°C° 0.1 mm 4 mps 760 mmHg 57%
    03:00 +24°C° 0.1 mm 2 mps 760 mmHg 61%
    04:00 +24°C° 0 mm 2 mps 760 mmHg 63%
    05:00 +24°C° 0 mm 2 mps 760 mmHg 64%
    06:00 +24°C° 0 mm 2 mps 760 mmHg 65%
    07:00 +26°C° 0 mm 2 mps 760 mmHg 57%
    08:00 +28°C° 0 mm 3 mps 760 mmHg 50%
    09:00 +30°C° 0 mm 3 mps 760 mmHg 42%
    10:00 +32°C° 0 mm 4 mps 759 mmHg 37%
    11:00 +34°C° 0 mm 5 mps 759 mmHg 32%
    12:00 +35°C° 0 mm 6 mps 759 mmHg 27%
    13:00 +35°C° 0 mm 6 mps 758 mmHg 28%
    14:00 +35°C° 0 mm 7 mps 758 mmHg 29%
    15:00 +35°C° 0 mm 7 mps 757 mmHg 29%
    16:00 +33°C° 0 mm 7 mps 757 mmHg 33%
    17:00 +32°C° 0 mm 6 mps 757 mmHg 36%
    18:00 +29°C° 0 mm 6 mps 757 mmHg 39%
    19:00 +28°C° 0 mm 5 mps 757 mmHg 44%
    20:00 +27°C° 0 mm 4 mps 757 mmHg 49%
    21:00 +26°C° 0 mm 4 mps 757 mmHg 54%
    22:00 +25°C° 0 mm 3 mps 757 mmHg 55%
    23:00 +25°C° 0 mm 3 mps 757 mmHg 55%

    28 August, Wednesday

    Time Temperature Precipitation Wind Pressure Humidity
    00:00 +25°C° 0 mm 3 mps 757 mmHg 56%
    01:00 +24°C° 0 mm 2 mps 756 mmHg 57%
    02:00 +23°C° 0 mm 2 mps 756 mmHg 59%
    03:00 +22°C° 0 mm 1 mps 756 mmHg 60%
    04:00 +23°C° 0 mm 1 mps 756 mmHg 58%
    05:00 +23°C° 0 mm 1 mps 757 mmHg 56%
    06:00 +24°C° 0 mm 2 mps 757 mmHg 55%
    07:00 +26°C° 0 mm 2 mps 757 mmHg 48%
    08:00 +28°C° 0 mm 2 mps 757 mmHg 40%
    09:00 +30°C° 0 mm 2 mps 757 mmHg 33%
    10:00 +31°C° 0 mm 2 mps 757 mmHg 30%
    11:00 +33°C° 0 mm 1 mps 757 mmHg 26%
    12:00 +34°C° 0 mm 1 mps 757 mmHg 23%
    13:00 +36°C° 0 mm 3 mps 756 mmHg 23%
    14:00 +36°C° 0 mm 4 mps 756 mmHg 24%
    15:00 +36°C° 0 mm 6 mps 756 mmHg 24%
    16:00 +34°C° 0 mm 6 mps 756 mmHg 29%
    17:00 +32°C° 0 mm 7 mps 756 mmHg 34%
    18:00 +29°C° 0 mm 7 mps 756 mmHg 39%
    19:00 +28°C° 0 mm 6 mps 757 mmHg 44%
    20:00 +27°C° 0 mm 5 mps 757 mmHg 50%
    21:00 +26°C° 0 mm 4 mps 758 mmHg 55%
    22:00 +26°C° 0 mm 4 mps 758 mmHg 57%
    23:00 +25°C° 0 mm 3 mps 758 mmHg 59%

    29 August, Thursday

    Time Temperature Precipitation Wind Pressure Humidity
    00:00 +25°C° 0 mm 3 mps 758 mmHg 61%
    01:00 +24°C° 0 mm 2 mps 758 mmHg 63%
    02:00 +24°C° 0 mm 2 mps 758 mmHg 66%
    03:00 +23°C° 0 mm 1 mps 758 mmHg 68%
    04:00 +24°C° 0 mm 1 mps 758 mmHg 66%
    05:00 +24°C° 0 mm 1 mps 758 mmHg 64%
    06:00 +25°C° 0 mm 1 mps 758 mmHg 62%
    07:00 +27°C° 0 mm 1 mps 758 mmHg 55%
    08:00 +28°C° 0 mm 1 mps 758 mmHg 47%
    09:00 +30°C° 0 mm 1 mps 758 mmHg 39%
    10:00 +33°C° 0 mm 3 mps 758 mmHg 35%
    11:00 +34°C° 0 mm 4 mps 757 mmHg 32%
    12:00 +35°C° 0 mm 5 mps 757 mmHg 28%
    13:00 +35°C° 0 mm 6 mps 757 mmHg 29%
    14:00 +35°C° 0 mm 6 mps 756 mmHg 30%
    15:00 +34°C° 0 mm 7 mps 756 mmHg 31%
    16:00 +33°C° 0 mm 7 mps 756 mmHg 36%
    17:00 +30°C° 0 mm 6 mps 756 mmHg 41%
    18:00 +29°C° 0 mm 6 mps 756 mmHg 46%
    19:00 +28°C° 0 mm 6 mps 757 mmHg 51%
    20:00 +27°C° 0 mm 5 mps 757 mmHg 57%
    21:00 +26°C° 0 mm 4 mps 758 mmHg 62%
    22:00 +25°C° 0 mm 5 mps 758 mmHg 64%
    23:00 +24°C° 0 mm 6 mps 758 mmHg 66%

    30 August, Friday

    Time Temperature Precipitation Wind Pressure Humidity
    00:00 +24°C° 0 mm 7 mps 758 mmHg 68%
    01:00 +24°C° 0 mm 7 mps 758 mmHg 69%
    02:00 +23°C° 0 mm 7 mps 758 mmHg 70%
    03:00 +23°C° 0 mm 7 mps 758 mmHg 72%
    04:00 +23°C° 0 mm 7 mps 758 mmHg 71%
    05:00 +22°C° 0 mm 7 mps 758 mmHg 70%
    06:00 +22°C° 0 mm 6 mps 758 mmHg 70%
    07:00 +23°C° 0 mm 7 mps 758 mmHg 64%
    08:00 +24°C° 0 mm 7 mps 758 mmHg 59%
    09:00 +27°C° 0 mm 7 mps 758 mmHg 53%
    10:00 +28°C° 0.1 mm 7 mps 758 mmHg 49%
    11:00 +29°C° 0.1 mm 7 mps 758 mmHg 45%
    12:00 +30°C° 0.1 mm 6 mps 758 mmHg 40%
    13:00 +30°C° 0 mm 7 mps 758 mmHg 41%
    14:00 +29°C° 0 mm 8 mps 757 mmHg 42%
    15:00 +29°C° 0 mm 8 mps 757 mmHg 43%
    16:00 +27°C° 0 mm 9 mps 757 mmHg 47%
    17:00 +26°C° 0 mm 9 mps 757 mmHg 51%
    18:00 +24°C° 0 mm 9 mps 757 mmHg 56%
    19:00 +23°C° 0 mm 9 mps 758 mmHg 58%
    20:00 +22°C° 0 mm 8 mps 758 mmHg 60%
    21:00 +22°C° 0 mm 8 mps 759 mmHg 61%
    22:00 +21°C° 0 mm 7 mps 759 mmHg 64%
    23:00 +21°C° 0 mm 7 mps 759 mmHg 66%
    Show more